Weather History for Chillicothe, MO

Change the Weather History Date:

Tuesday, February 12, 2013

  Actual Average (KIRK) Record (KIRK)
Temperature  
Mean Temperature 30 °F 29 °F  
Max Temperature 42 °F 38 °F 72 °F (1990)
Min Temperature 19 °F 20 °F -14 °F (1944)
Degree Days  
Heating Degree Days 34 36  
Month to date heating degree days 447  
Since 1 July heating degree days 3994  
Cooling Degree Days 0 0  
Month to date cooling degree days 0  
Year to date cooling degree days 0  
Moisture  
Dew Point 23 °F    
Average Humidity 76    
Maximum Humidity 92    
Minimum Humidity 53    
Precipitation  
Precipitation 0.00 in 0.06 in 0.42 in (1993)
Month to date precipitation 0.67  
Year to date precipitation 1.94  
Sea Level Pressure  
Sea Level Pressure 30.12 in    
Wind  
Wind Speed 1 mph (South)    
Max Wind Speed 8 mph    
Max Gust Speed -    
T = Trace of Precipitation, MM = Missing Value Source: NWS Daily Summary

Daily Weather History Graph

Daily Weather History Graph

Search for Another Location

Airport:

Trip Planner

Search our weather history database for the weather conditions in past years. The results will help you decide how hot, cold, wet, or windy it might be!

Date:

Astronomy

Feb. 12, 2013 Rise Set
Actual Time 7:10 AM CST 5:47 PM CST
Civil Twilight 6:42 AM CST 6:15 PM CST
Nautical Twilight 6:10 AM CST 6:46 PM CST
Astronomical Twilight 5:39 AM CST 7:18 PM CST
Moon 8:08 AM CST (2/12) 8:48 PM CST (2/12)
Length of Visible Light 11h 32m
Length of Day
10h 37m
Waxing Crescent, 7% of the Moon is Illuminated
Feb 12
Waxing Crescent
Feb 17
First Quarter
Feb 25
Full
Mar 4
Last Quarter
Mar 11
New

Hourly Weather History & Observations

Time (CST) Temp. Windchill Dew Point Humidity Pressure Visibility Wind Dir Wind Speed Gust Speed Precip Events Conditions
12:52 AM 25.0 °F - 21.9 °F 88% 30.21 in - Calm Calm - N/A   Unknown
1:52 AM 24.1 °F - 19.9 °F 84% 30.22 in - Calm Calm - N/A   Unknown
2:52 AM 24.1 °F - 21.0 °F 88% 30.23 in - Calm Calm - N/A   Unknown
3:52 AM 23.0 °F - 19.0 °F 85% 30.20 in - Calm Calm - N/A   Unknown
4:52 AM 21.9 °F - 18.0 °F 85% 30.20 in - Calm Calm - N/A   Unknown
5:52 AM 21.9 °F - 18.0 °F 85% 30.21 in - Calm Calm - N/A   Unknown
6:52 AM 19.9 °F - 18.0 °F 92% 30.22 in - Calm Calm - N/A   Unknown
7:52 AM 23.0 °F - 19.9 °F 88% 30.20 in - Calm Calm - N/A   Unknown
8:52 AM 30.0 °F - 25.0 °F 82% 30.21 in - Calm Calm - N/A   Unknown
9:52 AM 33.1 °F - 26.1 °F 75% 30.17 in - Calm Calm - N/A   Unknown
10:52 AM 35.1 °F 32.2 °F 26.1 °F 70% 30.17 in - SSE 3.5 mph - N/A   Unknown
11:52 AM 36.0 °F 33.3 °F 24.1 °F 62% 30.15 in - SW 3.5 mph - N/A   Unknown
12:52 PM 39.0 °F - 24.1 °F 55% 30.12 in - Calm Calm - N/A   Unknown
1:52 PM 39.9 °F 35.8 °F 26.1 °F 58% 30.11 in - South 5.8 mph - N/A   Unknown
2:52 PM 42.1 °F 37.7 °F 26.1 °F 53% 30.08 in - South 6.9 mph - N/A   Unknown
3:52 PM 41.0 °F 35.8 °F 27.0 °F 57% 30.06 in - South 8.1 mph - N/A   Unknown
4:52 PM 39.9 °F 35.8 °F 28.0 °F 63% 30.03 in - SSW 5.8 mph - N/A   Unknown
5:52 PM 37.0 °F 33.3 °F 27.0 °F 67% 30.04 in - SSW 4.6 mph - N/A   Unknown
6:52 PM 33.1 °F - 26.1 °F 75% 30.04 in - Calm Calm - N/A   Unknown
7:52 PM 30.0 °F - 25.0 °F 82% 30.04 in - Calm Calm - N/A   Unknown
8:52 PM 30.0 °F 26.5 °F 25.0 °F 82% 30.03 in - South 3.5 mph - N/A   Unknown
9:52 PM 28.9 °F 23.9 °F 24.1 °F 82% 30.01 in - South 4.6 mph - N/A   Unknown
10:52 PM 27.0 °F 23.0 °F 24.1 °F 89% 30.01 in - South 3.5 mph - N/A   Unknown
11:52 PM 27.0 °F 21.6 °F 23.0 °F 85% 29.99 in - SSW 4.6 mph - N/A   Unknown